Weather in Derevnya Chernovskiy Lesouchastok

Russia / Udmurt Republic     57°09′40″N   53°39′19″E
temp.,
°C
wind,
m/s
gust,
m/s
humid.,
%
clouds,
%
prec.,
mm/h
press.,
hPa
HPBL,
m
12 april, mon
mon1201:000nnw2293100 0.0 103437
04:000nnw2293100 0.0 103638
07:00+1nnw2396100 0.0 103784
10:00+5n2495100 0.0 1038201
13:00+8n348298 0.0 1039452
16:00+10nne3369100 0.0 1040793
19:00+6ne3379100 0.0 104023
22:00+4ene2278100 0.0 104116
13 april, tue
tue1301:00+3e2280100 0.0 104016
04:00+2ese228894 0.0 104111
07:00+3ese248473 0.0 104094
10:00+9sse346548 0.0 1039367
13:00+12sse3451100 0.0 1037612
16:00+13s4552100 0.0 1035697
19:00+10s3471100 0.0 103460
22:00+8ssw228753 0.0 103427
14 april, wed
wed1401:00+7sw229173 0.0 103319
04:00+7sw229278 0.0 103216
07:00+7sw2292100 0.0 103241
10:00+13sw347252 0.0 1031403
13:00+17sw45535 0.0 10301065
16:00+17sw454613 0.0 10281194
19:00+14ssw336365 0.0 102726
22:00+10ssw227686 0.0 102716
15 april, thu
thu1501:00+9ssw228558 0.0 102613
04:00+8ssw228932 0.0 102615
07:00+9ssw258911 0.0 1025138
10:00+14sw46615 0.0 1023587
13:00+17sw56395 0.0 10221181
16:00+18sw45355 0.0 10201455
19:00+14sw34554 0.0 101945
22:00+11wsw22680 0.0 101920
16 april, fri
fri1601:00+9wsw22745 0.0 101827
04:00+8w227910 0.0 101712
07:00+9w128153 0.0 101658
10:00+11n238494 0.4 1016342
13:00+8n2489100 0.7 1016189
16:00+8nne6778100 0.9 1016613
19:00+3nne51097100 0.2 1018390
22:00+2nnw39894 0.3 1017280